Temp
11 11 11 11 11 11 11 11 11 11 11 11 11 11 11 11 11 11 11 11 11 11 11 11 11 11 11 11 11 11 10 10 10 10 10 10 10 10 10 10 10 10 10 10 10 10 10 10 10 10 10 10 10 10 10 10 10 10 10 10 10 10 10
10 10 11 11 11 11 11 11 11 11 11 11 11 11 11 11 11 11 11 11 10 10 10 11 11 11 11 11 11 11 11 10 10 10 10 10 10 10 10 10 10 10 10 10 10 10 10 10 10 10 10 10 10 10 10 10 10 10 10 10 10 10 10
9 10 11 11 11 11 11 11 11 11 10 11 11 11 11 11 10 11 11 11 10 10 10 10 10 11 11 11 11 11 11 11 11 10 10 10 10 10 10 10 10 10 10 10 10 10 10 10 10 10 10 10 10 10 10 10 10 10 10 10 10 10 10
10 9 9 10 11 11 11 11 11 10 10 10 11 11 10 10 10 10 11 11 10 10 10 10 10 10 11 11 11 11 11 11 11 11 10 10 10 10 10 10 10 10 10 10 10 10 10 10 10 10 11 11 11 10 10 10 10 11 11 10 10 10 10
11 10 9 10 10 10 10 10 10 10 10 11 11 10 10 10 10 10 10 10 10 10 10 10 10 10 10 10 11 11 11 11 11 11 11 11 10 10 10 10 10 10 10 10 10 10 10 10 10 10 11 11 11 11 11 10 10 11 11 11 10 10 10
12 11 11 10 10 11 11 10 10 11 11 11 11 11 10 10 10 10 10 10 10 10 10 10 10 10 10 11 11 11 11 11 11 11 11 11 11 11 11 10 10 10 10 10 10 10 10 10 10 10 10 11 11 11 11 10 11 10 10 11 11 10 10
12 12 11 10 10 10 11 11 11 12 11 11 11 11 11 10 10 10 10 10 10 10 10 10 10 10 11 11 11 11 11 11 11 11 11 11 11 11 11 11 11 11 11 11 10 10 10 10 10 10 10 10 10 11 11 10 10 10 10 11 11 11 10
13 12 12 11 10 11 11 11 12 12 12 11 11 12 11 11 11 11 10 10 10 9 10 10 10 10 10 10 11 11 11 11 11 11 11 11 11 11 11 11 11 11 11 11 11 11 10 10 10 11 11 11 10 10 10 10 10 10 10 11 11 11 11
13 13 13 12 12 12 12 12 12 11 12 12 12 12 11 11 11 10 10 9 9 9 10 10 10 10 10 10 10 11 11 11 11 11 11 11 11 11 11 11 11 11 11 11 11 11 11 11 11 11 11 11 11 11 10 10 11 10 11 11 11 11 11
12 12 13 13 13 13 12 12 11 10 11 11 11 11 11 11 11 10 10 10 10 10 10 10 11 10 10 10 10 11 11 11 11 11 11 11 11 11 11 11 11 11 11 11 11 11 11 11 11 11 11 11 11 11 11 11 11 11 11 11 11 11 11
12 12 12 12 12 12 12 11 11 10 10 10 10 10 10 11 10 10 10 10 10 10 10 10 11 11 10 10 11 11 11 11 11 11 11 11 11 11 11 11 11 11 11 11 11 11 11 11 11 11 11 11 11 11 11 11 11 11 11 11 10 11 11
12 12 12 12 12 12 11 11 11 10 10 10 10 10 10 10 10 10 9 10 10 10 10 10 10 11 11 11 11 11 11 11 11 11 11 11 11 11 11 11 11 11 11 11 11 11 11 11 11 11 11 11 11 11 11 11 11 11 11 11 11 11 10
11 12 12 12 12 11 10 11 11 10 10 10 10 10 10 10 10 10 10 10 10 10 11 11 11 10 11 11 11 11 11 11 11 11 11 11 11 11 11 11 11 11 11 11 11 11 11 11 11 11 11 11 11 11 11 11 11 11 11 11 11 11 11
10 11 11 12 12 11 11 10 10 10 10 10 10 10 10 10 10 10 10 10 10 10 11 11 11 11 11 11 11 11 11 11 11 11 11 11 11 11 11 11 11 11 11 11 11 11 11 11 11 11 11 11 11 11 11 11 11 11 11 11 11 11 11
9 10 10 11 11 11 11 11 10 10 10 10 10 10 10 10 10 10 10 10 10 10 10 11 11 11 11 11 11 11 11 11 11 11 11 10 11 11 11 11 11 11 11 11 11 11 11 11 11 11 11 11 11 11 11 11 11 11 11 11 11 11 11
9 9 9 10 10 10 11 11 11 11 10 10 10 10 10 10 10 10 10 10 10 10 10 10 11 11 11 11 11 11 11 11 11 11 10 10 11 11 11 11 11 11 11 11 11 11 11 11 11 11 11 11 11 11 11 11 11 11 11 11 11 11 11
8 8 8 8 9 9 10 10 10 10 10 10 10 10 10 10 10 10 10 10 10 10 10 10 10 10 11 11 11 11 11 11 11 11 11 11 11 11 11 11 11 11 11 11 11 11 11 11 11 11 11 11 11 11 11 11 11 11 11 11 11 11 11
7 8 8 8 8 9 9 9 9 9 9 10 10 10 10 10 10 10 10 10 10 10 10 10 10 10 11 10 10 10 11 11 11 11 11 11 11 11 11 10 11 11 11 11 11 11 11 11 11 11 11 11 11 11 11 11 11 11 12 11 11 11 11
7 7 7 8 8 8 8 9 9 9 9 9 9 9 10 10 10 10 10 10 10 10 10 10 10 10 10 10 10 10 10 10 11 10 10 10 11 11 11 10 10 10 10 11 11 11 11 11 11 11 11 11 11 11 11 11 11 11 11 12 11 11 11
7 7 7 8 8 8 8 8 8 9 9 9 9 9 9 9 9 10 10 10 10 10 10 10 10 10 10 10 10 10 10 10 10 10 10 10 10 10 10 10 10 10 10 10 10 11 11 11 11 11 11 11 11 11 11 11 11 11 11 11 11 11 11
6 7 7 7 7 8 8 8 8 8 8 8 9 9 9 9 9 9 10 10 10 10 10 10 10 10 10 10 10 10 10 10 10 10 10 10 10 10 10 10 10 10 10 9 9 9 10 11 11 11 11 11 11 11 11 11 11 11 11 12 11 11 11
6 6 7 7 7 7 8 8 8 8 8 8 8 9 9 9 9 9 9 9 9 10 10 10 10 10 10 10 10 10 10 10 10 10 10 9 10 10 10 10 10 10 10 10 9 9 9 9 10 10 11 11 11 11 11 12 12 11 12 12 12 11 11
6 6 7 7 7 7 8 8 8 8 8 8 8 8 8 9 9 9 9 9 9 9 9 10 10 10 10 9 9 10 10 10 10 10 10 9 9 10 10 10 10 10 10 10 10 10 10 10 10 11 12 12 12 12 12 12 12 12 12 12 12 12 11
6 7 7 7 7 8 8 8 8 8 8 8 8 8 8 8 8 9 9 9 9 9 9 9 10 10 10 9 10 10 10 10 10 9 10 10 10 10 10 10 10 10 10 10 10 11 11 11 11 11 12 12 12 12 12 12 12 12 12 12 12 12 12
6 7 7 7 7 8 8 8 8 8 8 8 9 8 8 8 8 9 9 9 9 9 9 9 9 9 9 9 9 10 10 10 9 9 9 9 9 10 10 10 10 10 10 10 10 11 11 11 11 11 11 11 11 12 12 12 12 12 12 12 12 12 12
6 6 6 7 7 8 8 8 8 8 8 8 9 8 8 9 9 9 9 9 9 9 9 9 9 9 9 9 9 9 9 9 9 9 9 9 10 10 10 10 10 10 10 10 11 11 11 11 11 11 11 11 11 11 12 12 12 12 12 12 12 12 12
6 6 6 6 6 7 7 7 8 8 8 8 9 8 8 9 9 9 9 9 9 9 9 9 9 9 9 9 9 9 9 9 9 9 9 9 9 10 10 10 10 10 10 10 10 11 11 11 12 12 12 12 12 12 12 12 12 12 12 12 12 12 12
5 6 6 6 6 6 6 7 7 7 7 8 8 8 8 9 9 9 9 9 9 9 9 9 9 9 9 9 9 9 9 9 9 9 9 9 9 9 10 10 10 10 10 10 10 10 11 11 12 12 12 12 12 12 12 12 12 12 12 12 12 12 12
4 5 5 6 6 6 6 7 7 7 7 7 7 8 8 8 9 9 9 9 9 9 9 9 9 9 9 9 9 9 9 9 9 8 8 8 8 9 9 10 10 10 10 10 10 10 11 11 11 12 12 12 12 12 12 12 12 12 12 12 12 12 12
4 4 4 5 5 6 6 6 6 6 6 6 7 7 7 8 8 8 9 9 9 9 9 9 9 9 9 9 9 8 8 8 9 9 9 8 8 9 9 9 10 10 10 10 10 11 11 11 11 12 12 12 12 12 12 12 11 11 11 12 12 12 12
3 3 3 4 4 5 5 5 6 6 6 6 6 6 7 7 8 8 8 8 8 9 9 9 9 9 9 9 9 9 8 8 8 8 8 8 8 9 9 9 9 9 10 10 10 11 11 11 11 11 12 12 12 11 10 10 10 10 10 11 12 12 12
3 3 3 3 3 4 4 4 5 5 5 5 5 5 6 6 7 7 8 8 8 8 8 9 9 9 9 9 9 9 9 9 8 8 8 8 9 9 9 9 9 9 9 10 10 10 11 11 11 11 11 11 11 10 10 9 10 10 10 11 11 12 12
3 3 3 3 3 3 3 4 4 4 4 5 5 5 5 6 6 6 7 7 7 8 8 8 9 9 9 9 9 9 9 9 9 9 8 8 8 8 9 9 9 9 9 9 10 10 10 11 11 11 11 11 11 10 10 10 11 11 11 11 11 11 12
3 3 3 3 3 3 4 4 4 4 4 4 4 4 5 5 5 6 6 6 7 7 7 8 8 8 9 9 9 9 9 9 9 9 9 9 8 8 8 9 9 9 9 9 10 10 10 10 11 11 11 11 11 11 11 11 12 12 12 11 11 11 11
3 3 3 3 3 4 4 4 4 4 4 4 4 4 4 4 5 5 5 5 6 6 7 7 7 8 8 8 8 9 9 9 9 9 9 9 9 9 9 9 9 9 9 9 10 10 10 10 10 10 10 10 11 11 11 11 12 12 12 12 12 12 11
3 3 3 3 3 3 4 4 4 4 4 4 4 4 4 4 4 4 4 5 5 5 6 6 7 7 8 8 8 8 8 8 9 9 9 9 9 9 9 9 9 9 9 10 10 10 10 10 10 10 10 11 11 11 11 11 11 11 12 12 12 11 11
2 2 2 3 3 3 3 3 3 4 4 4 4 4 4 4 4 4 4 4 4 4 5 5 6 7 7 7 7 8 8 8 8 8 9 9 9 9 10 9 9 9 9 9 10 10 10 10 10 10 10 11 11 11 11 11 11 11 11 11 11 11 11
2 2 2 2 2 3 3 3 3 3 3 3 4 4 4 4 3 3 3 3 3 4 4 5 5 6 6 7 7 7 7 8 8 8 8 9 9 9 9 10 10 9 9 9 9 10 10 10 10 10 11 11 11 11 11 11 11 11 11 11 10 10 11
Height
3174 3175 3177 3179 3180 3182 3183 3184 3186 3188 3190 3192 3194 3196 3198 3200 3202 3204 3207 3209 3210 3212 3214 3216 3217 3218 3220 3221 3222 3224 3225 3226 3227 3228 3230 3231 3233 3234 3235 3237 3238 3239 3240 3242 3243 3244 3245 3245 3246 3247 3247 3248 3249 3249 3249 3250 3250 3251 3251 3252 3252 3253 3254
3174 3175 3177 3178 3179 3181 3182 3183 3185 3187 3188 3190 3193 3195 3197 3199 3200 3202 3205 3207 3209 3211 3213 3214 3216 3217 3219 3220 3221 3223 3224 3225 3226 3227 3229 3230 3232 3233 3234 3236 3237 3238 3239 3241 3242 3243 3244 3245 3246 3247 3247 3248 3249 3249 3249 3250 3251 3251 3252 3252 3252 3253 3254
3172 3174 3176 3177 3178 3179 3180 3181 3184 3186 3188 3189 3191 3193 3195 3197 3199 3200 3203 3205 3206 3208 3210 3212 3214 3216 3218 3219 3221 3222 3223 3224 3225 3227 3228 3229 3231 3232 3233 3235 3236 3237 3239 3240 3241 3242 3243 3244 3245 3246 3247 3248 3248 3249 3249 3250 3251 3251 3252 3252 3252 3253 3254
3168 3171 3174 3176 3177 3177 3178 3180 3182 3184 3187 3188 3189 3191 3193 3195 3198 3199 3201 3203 3204 3206 3208 3210 3212 3214 3216 3218 3220 3221 3222 3223 3224 3225 3227 3228 3229 3231 3232 3234 3235 3236 3238 3239 3240 3241 3243 3244 3244 3245 3246 3247 3248 3248 3249 3250 3250 3251 3252 3252 3252 3253 3254
3166 3168 3171 3175 3177 3177 3177 3179 3179 3181 3184 3186 3188 3190 3191 3193 3196 3198 3199 3201 3202 3203 3205 3208 3210 3212 3214 3216 3218 3220 3221 3222 3223 3224 3226 3227 3228 3230 3231 3233 3234 3235 3237 3238 3239 3240 3242 3243 3243 3244 3245 3246 3247 3248 3249 3249 3250 3251 3251 3252 3252 3252 3254
3166 3167 3169 3173 3175 3176 3177 3178 3178 3179 3182 3185 3187 3190 3192 3193 3195 3197 3198 3200 3201 3202 3204 3207 3208 3210 3212 3214 3216 3218 3220 3221 3222 3223 3224 3226 3227 3229 3230 3231 3233 3234 3235 3237 3238 3239 3240 3242 3243 3244 3245 3245 3246 3247 3248 3249 3249 3250 3251 3251 3252 3253 3253
3167 3167 3168 3170 3170 3172 3174 3175 3176 3179 3182 3184 3186 3189 3192 3194 3195 3197 3198 3198 3199 3200 3201 3203 3206 3208 3210 3212 3215 3217 3218 3219 3221 3222 3223 3224 3226 3227 3228 3230 3231 3233 3234 3235 3237 3238 3239 3240 3241 3243 3244 3245 3245 3246 3247 3248 3249 3249 3250 3251 3252 3252 3253
3166 3167 3168 3168 3168 3169 3170 3171 3173 3176 3180 3182 3183 3186 3189 3192 3194 3197 3198 3196 3196 3197 3198 3200 3203 3205 3207 3210 3213 3215 3216 3218 3220 3221 3222 3223 3224 3225 3227 3228 3230 3231 3233 3234 3235 3236 3238 3239 3240 3241 3243 3243 3244 3245 3246 3247 3247 3248 3249 3250 3251 3252 3252
3165 3166 3167 3168 3168 3168 3169 3171 3173 3175 3178 3179 3181 3184 3187 3189 3193 3195 3195 3193 3193 3195 3197 3199 3201 3204 3206 3209 3211 3213 3214 3216 3218 3219 3221 3222 3223 3224 3225 3226 3228 3229 3231 3232 3234 3235 3236 3237 3239 3240 3241 3242 3243 3244 3245 3245 3246 3247 3248 3249 3250 3251 3251
3165 3166 3166 3167 3168 3168 3169 3171 3173 3176 3178 3179 3181 3184 3187 3189 3191 3192 3192 3193 3193 3194 3196 3198 3200 3202 3205 3208 3210 3211 3213 3214 3216 3217 3219 3220 3221 3222 3223 3225 3226 3227 3229 3230 3232 3233 3234 3235 3237 3238 3239 3241 3242 3243 3243 3244 3245 3246 3247 3248 3248 3249 3250
3165 3166 3166 3167 3167 3168 3169 3171 3173 3175 3177 3179 3180 3183 3186 3188 3188 3188 3191 3194 3195 3194 3194 3196 3198 3201 3203 3206 3208 3210 3212 3213 3214 3215 3217 3218 3219 3221 3222 3223 3224 3225 3227 3228 3229 3231 3232 3233 3235 3236 3237 3239 3240 3241 3242 3243 3244 3245 3245 3246 3247 3248 3249
3164 3165 3166 3167 3167 3168 3169 3170 3172 3174 3176 3178 3179 3181 3184 3185 3184 3184 3187 3191 3193 3193 3193 3195 3197 3199 3201 3204 3206 3208 3210 3211 3213 3214 3215 3216 3217 3219 3220 3221 3222 3223 3225 3226 3227 3228 3230 3231 3232 3234 3235 3237 3238 3239 3240 3241 3242 3243 3244 3245 3246 3247 3247
3164 3165 3166 3167 3168 3168 3169 3170 3171 3173 3175 3176 3178 3180 3182 3183 3183 3184 3185 3187 3189 3191 3192 3193 3195 3197 3199 3202 3204 3205 3207 3209 3211 3212 3214 3215 3216 3217 3219 3220 3220 3221 3222 3223 3225 3226 3227 3228 3230 3231 3233 3234 3236 3237 3238 3239 3240 3241 3243 3244 3244 3245 3246
3164 3164 3165 3167 3167 3168 3169 3170 3171 3172 3174 3175 3177 3178 3180 3181 3182 3183 3184 3185 3186 3188 3189 3190 3192 3194 3196 3199 3201 3203 3205 3207 3209 3210 3212 3213 3214 3215 3216 3217 3218 3219 3220 3221 3222 3224 3225 3226 3227 3229 3231 3232 3233 3234 3235 3236 3238 3239 3240 3241 3242 3243 3244
3163 3164 3165 3166 3167 3168 3169 3170 3171 3172 3173 3174 3175 3176 3178 3179 3180 3181 3182 3184 3185 3186 3187 3188 3189 3191 3193 3196 3198 3200 3202 3204 3206 3207 3208 3210 3211 3213 3214 3215 3216 3217 3218 3219 3220 3221 3223 3224 3225 3226 3228 3229 3230 3231 3233 3234 3235 3236 3237 3239 3240 3241 3242
3162 3163 3164 3165 3166 3167 3168 3169 3170 3171 3172 3173 3174 3175 3176 3177 3178 3179 3180 3181 3182 3184 3186 3187 3188 3189 3191 3193 3195 3197 3199 3201 3202 3203 3204 3205 3207 3210 3212 3213 3214 3215 3216 3217 3218 3219 3220 3221 3222 3224 3225 3226 3228 3229 3230 3231 3232 3233 3235 3236 3238 3239 3240
3161 3162 3163 3164 3165 3166 3167 3168 3169 3170 3171 3172 3173 3174 3175 3176 3176 3177 3178 3179 3180 3181 3183 3185 3186 3188 3189 3190 3192 3193 3195 3197 3198 3200 3200 3202 3204 3206 3208 3209 3211 3213 3214 3215 3216 3217 3218 3219 3220 3221 3223 3224 3225 3226 3227 3228 3229 3230 3232 3234 3235 3236 3238
3161 3162 3163 3164 3164 3165 3166 3167 3168 3169 3170 3171 3172 3173 3174 3174 3175 3176 3177 3178 3179 3180 3181 3183 3184 3185 3186 3187 3188 3190 3191 3192 3194 3195 3197 3199 3202 3203 3203 3204 3206 3208 3211 3213 3214 3215 3216 3217 3218 3219 3221 3222 3223 3223 3224 3226 3227 3228 3229 3231 3233 3234 3235
3160 3162 3163 3163 3164 3165 3166 3166 3167 3168 3169 3170 3171 3172 3173 3173 3174 3175 3176 3177 3178 3179 3180 3181 3182 3183 3183 3184 3185 3186 3188 3188 3189 3192 3194 3196 3199 3200 3201 3203 3204 3204 3206 3209 3212 3213 3214 3215 3216 3217 3218 3219 3220 3221 3222 3223 3224 3225 3226 3228 3230 3231 3232
3160 3161 3162 3163 3164 3165 3165 3166 3166 3167 3168 3169 3169 3170 3171 3172 3173 3174 3174 3175 3176 3177 3179 3180 3181 3181 3182 3182 3183 3184 3185 3185 3186 3189 3191 3192 3194 3196 3198 3201 3203 3204 3205 3205 3207 3209 3212 3213 3214 3215 3216 3217 3218 3219 3220 3222 3222 3223 3224 3225 3227 3228 3229
3159 3160 3161 3162 3163 3164 3165 3165 3166 3167 3167 3168 3169 3169 3170 3171 3172 3172 3173 3174 3175 3176 3177 3178 3179 3180 3180 3180 3181 3182 3183 3183 3185 3186 3187 3187 3190 3193 3195 3198 3200 3202 3205 3205 3205 3206 3207 3209 3210 3212 3214 3215 3216 3217 3218 3219 3220 3221 3221 3223 3224 3226 3226
3157 3159 3160 3161 3162 3163 3164 3165 3165 3166 3167 3167 3168 3169 3169 3170 3171 3171 3172 3173 3173 3174 3175 3176 3177 3178 3178 3178 3178 3180 3181 3181 3182 3183 3183 3185 3188 3191 3193 3195 3196 3198 3201 3205 3207 3206 3205 3204 3204 3207 3210 3212 3213 3214 3215 3216 3217 3218 3219 3220 3222 3222 3223
3156 3157 3158 3159 3161 3162 3163 3164 3165 3165 3166 3167 3167 3168 3169 3169 3170 3170 3171 3172 3172 3173 3173 3174 3175 3175 3175 3175 3176 3178 3179 3180 3180 3180 3181 3183 3185 3187 3189 3191 3193 3196 3198 3202 3204 3205 3205 3205 3205 3205 3207 3209 3210 3211 3212 3213 3214 3215 3216 3218 3218 3219 3219
3155 3156 3157 3158 3159 3160 3161 3163 3163 3164 3165 3166 3166 3167 3168 3168 3169 3169 3170 3170 3171 3172 3172 3172 3173 3173 3173 3173 3175 3177 3177 3177 3177 3177 3178 3181 3182 3183 3186 3188 3191 3194 3195 3197 3199 3200 3201 3203 3203 3204 3205 3206 3206 3207 3208 3209 3211 3212 3213 3215 3215 3216 3216
3153 3154 3155 3156 3157 3158 3160 3161 3162 3163 3164 3164 3165 3166 3167 3167 3168 3168 3169 3169 3170 3170 3170 3171 3171 3171 3171 3172 3173 3174 3174 3174 3173 3174 3175 3178 3179 3180 3182 3186 3188 3191 3192 3193 3194 3195 3196 3197 3198 3199 3201 3202 3204 3204 3204 3206 3207 3208 3209 3211 3212 3213 3213
3151 3152 3153 3154 3155 3156 3158 3159 3160 3161 3161 3162 3163 3164 3165 3166 3166 3167 3168 3168 3168 3169 3169 3169 3169 3170 3170 3170 3171 3172 3172 3171 3171 3171 3172 3175 3178 3179 3180 3182 3184 3186 3188 3189 3190 3190 3191 3193 3195 3196 3197 3199 3200 3201 3202 3202 3203 3204 3205 3207 3209 3210 3210
3148 3149 3151 3151 3153 3154 3155 3156 3157 3158 3159 3159 3161 3162 3162 3163 3164 3165 3166 3166 3167 3167 3167 3168 3168 3168 3169 3169 3170 3170 3170 3170 3170 3169 3170 3172 3175 3178 3179 3180 3182 3182 3183 3184 3186 3187 3189 3191 3191 3192 3193 3195 3196 3197 3198 3199 3200 3200 3201 3203 3205 3206 3206
3143 3145 3146 3147 3149 3150 3151 3152 3154 3155 3156 3156 3157 3158 3159 3160 3161 3162 3163 3164 3164 3165 3165 3166 3166 3167 3167 3167 3168 3168 3168 3169 3169 3169 3169 3170 3172 3175 3177 3179 3180 3180 3181 3183 3184 3185 3186 3187 3188 3189 3190 3191 3191 3192 3194 3195 3196 3197 3197 3198 3199 3201 3202
3140 3141 3142 3143 3144 3145 3146 3148 3150 3151 3152 3153 3153 3154 3155 3156 3157 3159 3160 3160 3161 3162 3162 3163 3164 3164 3165 3165 3166 3166 3167 3167 3168 3168 3168 3169 3170 3172 3175 3176 3176 3177 3180 3181 3182 3182 3183 3183 3184 3185 3185 3186 3187 3188 3189 3191 3193 3193 3194 3194 3195 3197 3198
3137 3137 3138 3139 3140 3140 3142 3143 3145 3147 3148 3149 3149 3150 3151 3152 3153 3155 3156 3156 3157 3158 3159 3159 3160 3161 3162 3163 3163 3164 3164 3165 3166 3167 3167 3168 3168 3170 3172 3173 3173 3174 3176 3178 3179 3179 3179 3180 3180 3180 3181 3182 3182 3183 3185 3186 3188 3189 3189 3190 3192 3193 3194
3134 3134 3134 3135 3135 3136 3137 3139 3140 3142 3143 3144 3145 3145 3146 3147 3149 3150 3151 3152 3153 3154 3154 3155 3156 3157 3158 3159 3160 3161 3161 3162 3163 3164 3165 3166 3167 3167 3169 3170 3170 3170 3172 3173 3174 3174 3175 3176 3176 3176 3177 3177 3177 3177 3178 3177 3178 3180 3182 3185 3187 3189 3190
3132 3132 3132 3132 3131 3132 3133 3134 3135 3136 3138 3139 3140 3140 3141 3142 3143 3144 3146 3148 3148 3149 3149 3150 3151 3152 3154 3155 3156 3157 3158 3158 3159 3160 3162 3163 3164 3165 3166 3166 3167 3167 3168 3169 3170 3170 3170 3171 3171 3171 3171 3172 3172 3174 3174 3174 3176 3180 3183 3184 3185 3186 3187
3130 3130 3130 3130 3129 3129 3128 3129 3130 3131 3133 3134 3135 3135 3136 3137 3138 3139 3140 3142 3143 3143 3144 3145 3146 3147 3148 3150 3151 3152 3153 3154 3155 3156 3157 3159 3160 3161 3162 3163 3163 3164 3165 3166 3166 3167 3167 3167 3166 3166 3166 3167 3169 3172 3174 3176 3178 3180 3181 3181 3181 3182 3183
3126 3127 3127 3127 3127 3127 3126 3126 3126 3126 3127 3129 3130 3130 3131 3132 3133 3134 3135 3136 3137 3137 3138 3139 3140 3141 3143 3144 3145 3146 3148 3149 3150 3152 3153 3154 3155 3156 3157 3159 3159 3160 3161 3162 3162 3162 3163 3162 3162 3162 3162 3163 3166 3168 3170 3172 3174 3175 3177 3177 3177 3177 3178
3122 3123 3123 3123 3124 3124 3124 3123 3123 3122 3123 3123 3124 3125 3126 3127 3128 3129 3129 3130 3130 3131 3132 3133 3134 3135 3137 3138 3139 3140 3141 3142 3144 3145 3147 3148 3150 3151 3152 3153 3155 3155 3157 3158 3158 3158 3158 3158 3159 3158 3159 3159 3161 3163 3165 3167 3169 3170 3172 3173 3173 3173 3172
3118 3118 3119 3119 3120 3120 3120 3120 3120 3119 3119 3119 3119 3120 3120 3121 3122 3123 3123 3124 3124 3125 3126 3127 3128 3129 3130 3132 3133 3134 3135 3136 3137 3139 3140 3142 3143 3145 3146 3148 3149 3150 3151 3153 3154 3154 3154 3154 3155 3155 3155 3155 3157 3159 3160 3162 3164 3165 3166 3167 3168 3168 3168
3113 3114 3114 3115 3115 3115 3116 3116 3116 3116 3115 3115 3115 3115 3115 3115 3116 3117 3117 3118 3118 3118 3119 3120 3121 3123 3124 3125 3126 3127 3129 3129 3130 3132 3133 3135 3137 3138 3140 3141 3143 3145 3146 3147 3149 3149 3150 3150 3151 3151 3151 3152 3154 3155 3156 3157 3159 3160 3161 3162 3163 3163 3162
3108 3108 3109 3109 3110 3110 3110 3111 3111 3111 3111 3111 3111 3110 3110 3110 3110 3111 3111 3111 3112 3112 3113 3114 3114 3116 3118 3119 3120 3121 3122 3123 3124 3125 3127 3128 3130 3131 3133 3135 3136 3139 3140 3141 3142 3144 3145 3145 3146 3147 3147 3148 3149 3151 3152 3153 3154 3155 3157 3157 3158 3158 3157
Wind_Speed
13 15 16 16 17 16 18 21 22 23 23 22 22 23 24 23 23 24 24 23 22 21 20 19 18 18 17 17 17 18 18 18 18 18 17 16 16 16 16 15 14 13 12 11 11 11 10 10 9 8 7 6 6 6 6 6 7 7 7 7 7 7 7
11 13 17 18 18 17 17 20 23 24 25 23 22 23 24 23 23 25 24 23 23 22 21 20 19 18 17 17 17 17 18 18 18 18 17 17 17 17 17 16 16 15 14 13 12 12 12 11 10 9 8 7 6 6 6 6 7 7 7 7 7 7 6
12 11 16 19 18 18 19 21 24 25 25 23 23 23 25 25 24 25 24 23 23 23 23 22 21 20 18 17 17 17 18 18 17 18 17 17 17 17 18 17 17 16 15 15 13 13 12 12 12 11 9 8 7 7 7 7 7 7 7 7 7 7 7
15 9 13 18 16 18 21 22 22 22 21 22 24 24 25 25 25 26 25 24 24 25 25 24 23 22 21 19 17 17 18 18 17 18 18 18 18 18 18 18 18 17 16 16 15 14 13 13 13 12 11 10 8 8 7 7 7 7 7 7 7 7 7
16 9 12 15 13 16 19 19 19 19 18 21 24 24 25 25 26 27 27 26 27 27 26 25 23 23 22 20 19 18 17 18 18 18 18 19 19 18 19 19 19 18 17 17 16 15 14 14 13 13 12 11 10 9 8 8 8 7 7 7 7 7 7
19 17 15 15 13 16 19 18 20 22 20 20 22 22 23 24 25 26 28 28 28 27 26 25 23 23 23 22 21 19 18 19 19 19 19 19 19 19 19 19 19 19 19 18 17 17 16 15 14 13 13 12 11 10 10 9 9 8 8 8 7 7 8
17 19 21 20 18 20 22 21 22 24 23 22 23 23 23 23 23 26 28 28 26 25 25 23 22 23 23 22 22 21 20 19 20 20 20 20 20 20 21 20 20 20 20 20 19 18 17 17 16 14 14 13 12 12 11 11 11 10 9 9 8 8 8
13 16 21 25 25 25 26 26 25 25 24 25 26 26 24 22 23 25 26 25 24 24 25 23 23 24 23 23 23 23 22 20 20 20 20 20 20 21 21 21 21 21 21 20 20 19 19 18 18 16 16 15 14 13 12 12 12 11 11 10 10 9 9
10 12 14 19 23 24 25 26 25 24 23 23 25 25 25 24 25 24 23 23 23 25 25 24 24 24 24 24 25 25 24 22 21 21 21 21 21 21 21 21 21 21 21 21 21 21 20 20 19 18 18 17 15 14 14 13 13 12 12 12 11 11 10
10 10 10 12 15 18 21 23 24 22 21 22 23 23 23 26 27 25 23 23 24 25 25 25 25 24 24 25 25 26 26 24 23 22 22 22 22 22 21 21 22 22 21 21 21 22 21 21 21 20 20 19 17 16 15 14 13 13 13 13 12 12 12
10 10 9 9 10 14 19 23 24 22 22 23 23 23 22 25 27 26 24 24 23 21 19 21 24 24 25 26 26 27 27 25 25 24 24 23 22 22 22 22 23 23 22 23 22 23 23 22 23 22 21 20 19 17 16 16 15 15 14 14 13 14 13
10 9 9 9 8 10 15 21 24 23 23 25 26 25 24 23 23 22 23 23 22 19 16 18 22 23 24 25 26 27 27 27 27 26 25 24 22 22 23 23 24 23 23 24 24 23 23 23 24 23 22 21 21 20 19 18 18 17 17 16 15 15 15
8 8 8 8 8 7 10 16 22 24 24 24 26 26 25 25 23 21 21 22 22 20 20 21 22 23 23 24 26 28 27 27 28 27 27 26 24 24 23 24 24 24 24 25 25 25 24 24 24 23 23 23 22 22 21 21 20 19 19 19 18 18 17
8 7 7 7 7 7 7 10 16 21 23 24 24 24 25 26 26 23 23 23 22 21 22 22 22 23 23 24 26 27 27 28 29 28 29 28 27 25 25 25 24 24 25 25 25 25 25 25 25 24 24 24 24 24 24 23 23 22 21 21 21 21 20
7 6 6 6 7 7 7 8 10 13 17 20 22 22 23 24 26 26 25 25 24 23 23 23 23 24 24 24 25 26 27 29 30 31 32 31 29 28 28 28 26 25 26 25 25 25 25 25 25 24 24 24 25 25 26 25 25 24 23 23 23 23 23
8 6 5 5 5 5 6 7 8 9 11 14 17 20 21 22 24 26 27 27 27 27 25 25 26 26 26 25 25 26 28 29 30 32 33 32 31 31 31 30 29 28 27 26 25 26 26 26 25 25 25 25 25 26 26 27 26 25 25 24 24 24 24
10 8 7 6 4 4 4 5 7 8 8 10 13 16 18 20 22 24 26 27 29 30 30 29 28 27 28 28 27 26 28 31 32 33 33 32 33 34 34 33 32 32 30 29 28 27 27 27 26 26 26 25 25 25 26 27 27 26 26 25 25 25 24
12 10 9 8 6 5 5 6 6 7 7 9 11 12 14 16 19 22 23 24 27 29 30 30 31 31 31 30 29 28 28 31 34 35 35 34 34 36 36 35 35 35 34 32 31 30 29 29 28 27 27 26 25 25 25 26 26 26 26 25 25 26 26
14 13 12 10 9 8 7 6 6 6 7 8 9 10 11 12 14 17 20 22 25 26 28 29 31 34 33 32 32 32 30 31 34 35 36 36 35 36 37 36 36 36 35 34 34 33 31 31 30 29 29 28 27 26 26 26 26 27 26 24 24 25 27
15 14 13 12 11 10 9 7 7 6 6 6 7 8 10 11 12 13 16 19 22 25 27 28 30 34 35 34 34 33 32 32 33 34 36 37 37 37 37 37 37 37 36 34 34 35 35 33 32 32 31 31 30 29 28 27 27 27 26 24 22 23 25
17 15 14 13 12 11 10 9 8 7 6 6 6 7 8 9 10 11 13 15 18 21 24 25 28 31 34 35 35 34 34 34 33 34 36 37 37 37 36 36 36 37 38 34 31 32 35 36 35 34 33 32 31 31 30 28 28 28 27 24 22 23 25
18 17 16 14 14 13 11 10 9 8 7 7 6 6 6 6 7 8 10 11 13 17 20 23 26 29 32 35 36 36 36 36 36 36 36 36 36 37 37 37 37 37 38 37 33 31 32 34 35 34 32 32 32 32 31 29 28 28 27 25 23 24 26
19 19 18 17 16 15 14 13 11 10 9 8 7 6 6 6 6 6 7 8 10 12 15 18 22 26 29 31 34 35 35 36 36 37 36 35 36 37 38 38 38 37 36 36 36 34 33 32 31 30 31 31 31 32 32 30 29 28 26 25 24 25 26
22 21 20 19 18 18 17 15 14 13 12 11 10 9 8 8 7 7 7 8 9 10 11 12 15 19 21 22 26 31 34 34 34 35 37 35 35 36 38 37 36 35 35 35 35 35 34 33 32 31 30 30 29 30 31 30 30 28 27 26 25 26 27
25 24 23 23 23 22 21 19 19 18 17 17 16 14 13 12 11 11 11 10 11 11 11 11 12 15 16 15 16 22 28 31 31 32 35 36 36 36 36 37 37 35 34 35 35 34 34 34 33 33 33 31 31 31 30 29 29 29 28 27 26 27 28
27 27 27 27 27 26 25 25 25 24 24 24 22 20 20 19 17 16 15 14 15 15 15 14 14 15 16 15 14 16 20 24 26 27 29 32 35 37 36 36 37 37 37 37 36 35 35 33 32 32 33 33 33 33 31 29 29 30 30 28 27 28 29
25 26 27 28 28 27 28 29 29 28 28 28 27 26 26 24 23 22 20 19 19 19 18 18 17 17 17 17 17 17 17 19 20 22 23 23 25 31 34 33 34 36 37 37 36 36 35 34 33 32 33 34 34 34 34 32 29 29 30 31 30 30 31
24 25 25 27 27 27 27 28 28 28 29 29 29 29 29 28 28 26 25 24 24 23 23 22 21 21 20 19 19 19 19 19 19 20 22 21 19 20 23 27 31 34 35 36 36 37 37 36 36 35 34 33 34 34 34 33 31 30 30 31 32 32 33
25 25 25 26 27 28 29 28 27 27 28 28 29 30 30 30 30 30 29 28 28 28 27 26 25 24 24 23 22 21 21 21 20 20 21 21 21 20 18 20 24 28 30 32 35 37 37 37 37 35 34 33 34 34 34 34 33 32 32 31 31 32 33
24 24 24 25 26 28 29 29 28 28 27 28 30 30 31 31 32 31 31 31 31 31 31 30 29 28 27 26 26 25 24 23 22 22 22 21 21 21 19 18 20 22 23 26 31 34 36 37 36 35 34 32 32 33 33 34 35 35 35 34 33 32 33
23 24 24 25 26 27 27 28 28 28 27 27 28 30 31 32 32 33 33 33 33 33 33 33 33 32 31 30 29 28 28 27 25 24 24 23 22 21 20 19 20 20 20 22 25 29 32 35 35 36 35 34 35 35 35 37 40 40 38 36 34 33 33
22 23 24 25 26 27 27 27 27 27 27 27 27 29 30 31 33 33 33 33 34 35 35 36 36 35 34 33 33 32 31 30 30 28 27 25 24 24 23 22 21 21 21 21 23 25 29 33 36 37 37 37 38 37 35 36 37 36 34 34 35 34 33
23 23 24 25 26 27 28 28 28 28 28 28 28 29 30 31 33 34 34 34 35 35 36 37 38 38 38 37 36 36 35 34 33 32 31 30 28 27 26 25 24 23 23 23 24 25 28 31 36 39 39 38 37 35 33 33 32 31 32 35 36 36 36
22 22 23 24 25 27 28 29 29 29 29 29 29 30 31 31 32 33 34 35 35 36 37 38 39 39 40 39 39 39 38 37 37 36 35 35 33 32 30 29 28 26 25 25 26 26 28 30 33 37 39 39 37 35 35 35 33 31 31 33 36 37 37
20 21 21 22 24 25 27 28 29 30 31 31 31 31 31 32 32 32 33 34 35 36 37 38 39 40 40 40 41 41 41 40 39 38 38 38 38 37 36 33 32 30 28 27 28 28 29 30 32 34 36 38 38 37 37 36 34 32 31 30 32 36 37
20 21 21 22 24 25 26 27 28 30 31 31 32 32 33 33 33 33 33 34 35 36 37 38 39 40 40 40 41 42 42 42 42 41 40 40 40 40 40 39 37 35 33 31 30 30 31 31 32 33 35 37 38 38 39 37 35 34 33 31 31 34 36
23 23 23 23 25 26 26 27 28 30 31 32 33 33 34 34 34 34 34 35 36 36 37 38 39 40 40 40 41 42 42 43 43 43 42 41 40 41 42 43 41 39 37 35 33 33 33 33 33 34 35 36 36 37 40 39 37 36 36 34 33 34 35
27 28 28 28 28 28 29 29 29 30 31 32 33 34 35 35 36 36 36 36 37 38 38 39 40 40 40 40 41 42 42 43 44 44 43 43 42 41 42 44 45 43 41 40 38 36 35 36 36 35 35 35 35 36 38 39 38 38 37 36 35 34 36
Wind_Direction
182 196 195 196 199 200 202 202 203 206 209 213 214 214 217 216 215 217 210 203 207 212 214 215 211 210 209 207 206 205 204 207 210 211 212 210 205 203 202 203 202 197 192 194 197 197 197 195 194 197 197 197 194 185 176 175 175 173 170 169 170 175 180
164 187 194 195 197 201 206 204 203 205 206 210 212 213 217 218 217 219 213 204 207 210 212 216 214 212 212 209 208 208 207 208 211 213 214 213 209 207 206 206 204 201 197 198 201 201 204 204 200 199 199 200 201 197 188 185 186 184 177 173 171 174 174
157 168 187 191 196 204 207 204 205 204 202 205 208 210 216 218 218 222 217 209 210 210 210 213 213 211 211 211 210 210 210 210 211 214 216 214 212 210 210 209 207 205 203 202 205 206 208 210 208 204 201 202 205 204 200 196 196 193 184 179 173 170 175
172 152 171 180 189 202 206 208 210 203 197 202 208 209 212 214 217 222 221 215 213 213 211 210 209 208 208 208 209 210 211 212 212 214 217 216 214 213 213 213 211 209 208 207 208 209 211 212 213 211 206 206 209 210 209 205 206 204 193 189 182 174 179
196 174 160 163 179 199 201 207 216 209 198 203 210 209 206 206 210 217 221 218 214 214 212 208 206 207 206 207 208 209 210 212 213 214 217 218 217 215 215 217 215 213 212 211 211 212 214 216 218 217 213 211 211 213 214 213 215 214 206 203 198 185 184
208 205 185 166 170 190 194 201 211 210 206 206 211 212 210 208 208 212 218 218 214 213 211 206 205 207 205 205 208 209 210 211 213 215 217 219 220 219 217 219 219 216 215 215 214 214 215 217 221 222 218 214 213 215 219 219 219 220 217 215 212 203 199
201 208 204 192 182 181 188 197 204 206 207 207 210 216 216 216 217 215 215 214 210 210 211 208 208 210 207 206 209 211 211 212 214 216 218 220 222 222 220 220 220 219 217 216 217 217 216 217 220 223 222 219 216 217 221 225 225 225 226 224 222 218 215
194 199 204 205 201 192 190 195 199 198 198 202 207 212 211 215 224 223 216 209 205 208 212 210 210 213 211 210 212 212 210 211 214 217 219 221 223 224 223 222 222 222 220 218 219 220 219 219 220 223 226 225 222 219 221 226 228 229 231 232 230 227 225
194 197 202 207 210 206 199 197 197 195 194 199 204 206 204 209 218 219 210 204 205 209 212 213 214 216 217 216 215 214 212 209 211 217 219 221 223 224 225 225 223 224 223 221 222 223 223 223 223 223 226 228 227 225 224 225 227 230 234 235 235 233 232
184 194 199 201 206 207 200 197 198 200 198 199 200 199 200 204 208 210 207 205 209 210 207 210 216 218 221 222 219 217 216 211 210 215 217 220 224 224 226 227 226 225 225 224 225 225 225 226 226 227 228 229 230 230 230 229 227 230 234 237 238 238 237
178 182 189 195 197 196 196 195 198 201 199 198 201 201 200 200 200 202 203 202 206 206 196 201 213 218 219 221 221 220 219 217 215 216 217 218 221 224 226 229 230 229 226 226 228 228 228 228 228 230 230 230 232 234 235 236 235 234 235 236 238 240 239
178 179 182 188 186 184 189 193 196 200 201 202 205 205 203 202 203 205 202 196 198 204 206 208 213 217 218 220 222 222 223 223 220 219 220 220 220 222 225 228 232 232 229 228 229 230 232 232 231 232 232 232 233 235 237 240 241 241 239 237 238 240 242
173 179 181 184 187 181 180 188 193 198 202 205 208 207 205 205 209 212 209 202 197 198 207 212 212 215 218 220 222 222 223 226 225 223 223 223 221 220 223 226 230 232 232 230 229 229 232 234 233 233 233 233 234 235 238 240 242 244 243 241 239 239 240
170 178 180 182 191 189 182 185 191 195 199 203 208 211 211 211 213 213 211 208 203 197 201 208 213 218 219 219 220 221 223 225 226 227 227 224 221 220 223 225 227 230 233 232 231 230 231 233 234 234 234 234 235 236 238 239 241 243 244 243 242 241 240
172 180 184 185 188 194 199 199 196 197 199 202 206 210 213 216 217 218 214 211 210 209 208 210 215 220 223 221 220 223 227 225 223 225 225 224 224 224 226 226 226 230 232 233 234 233 232 233 234 233 232 233 234 236 238 240 241 242 243 243 243 243 243
169 169 167 175 186 195 201 198 197 201 201 204 209 211 214 216 218 220 220 217 216 217 217 216 217 219 221 222 222 224 226 225 224 225 224 223 223 226 228 228 228 230 231 232 235 235 234 233 234 235 234 233 234 236 238 240 242 242 242 243 243 244 245
166 167 163 167 181 184 181 179 183 195 203 207 212 216 218 219 219 219 220 220 220 220 220 220 219 217 217 219 221 222 224 225 226 227 227 226 225 226 227 228 229 231 232 232 233 234 235 235 235 236 236 236 236 237 238 240 243 243 242 242 243 243 244
170 174 172 171 175 173 175 177 176 182 192 198 205 213 219 221 222 222 220 220 220 221 221 222 220 218 218 218 219 220 223 226 227 227 228 229 229 229 229 227 226 229 232 234 235 236 236 237 238 239 239 239 239 240 241 242 244 245 243 241 241 243 245
180 180 176 176 176 173 176 181 182 183 186 193 198 202 208 215 222 226 226 224 222 221 222 223 223 222 221 222 222 221 223 226 227 227 227 228 230 233 236 235 231 228 227 231 235 238 240 239 240 242 243 244 244 244 244 245 247 249 248 243 240 241 244
185 184 182 182 182 181 183 182 181 184 186 195 204 205 208 214 219 225 227 227 227 225 224 225 226 225 224 224 224 223 223 225 226 226 227 227 228 231 236 241 243 239 232 228 229 234 239 242 243 244 245 246 248 249 249 249 251 253 253 249 244 243 245
186 186 185 185 185 185 185 184 182 185 187 192 201 207 212 217 221 225 227 228 229 229 229 229 228 227 226 225 225 225 224 225 225 225 226 227 227 229 232 236 241 244 242 238 234 230 233 237 241 244 247 249 250 252 253 253 254 256 257 255 251 250 250
191 192 190 190 191 189 189 189 188 192 196 196 198 203 210 215 220 224 226 230 230 229 230 232 232 231 229 226 226 226 225 226 226 226 227 227 228 231 234 235 237 241 244 245 245 241 236 234 233 236 242 248 250 252 254 255 254 256 258 258 255 253 252
204 204 202 200 201 201 200 199 198 200 206 210 211 215 223 230 235 233 231 232 233 232 232 233 234 236 235 231 227 227 229 230 229 228 228 229 229 230 232 234 237 242 245 246 247 249 250 248 243 240 240 244 248 251 253 255 255 256 257 257 256 254 252
216 217 216 216 216 216 215 214 216 218 221 225 227 229 234 239 246 250 252 252 250 247 244 241 241 245 247 242 232 229 231 234 233 232 232 232 231 231 233 235 238 242 245 247 248 249 252 253 252 250 248 246 247 249 251 253 254 255 255 255 255 256 255
224 225 227 228 229 229 228 229 233 236 239 241 240 241 242 243 245 249 253 259 263 264 261 258 258 260 264 261 243 233 233 235 235 236 237 236 235 233 235 238 240 241 242 245 248 250 250 250 249 249 250 250 250 249 248 249 250 252 254 253 253 253 254
227 230 232 234 236 237 237 238 241 243 246 247 247 247 246 245 244 246 249 252 258 263 266 267 267 265 267 268 262 252 246 242 240 240 241 240 239 237 236 235 235 236 239 241 244 247 249 251 252 251 250 249 250 250 249 247 247 249 251 252 251 251 252
238 237 237 238 238 239 240 242 244 244 245 247 248 248 248 247 245 244 245 247 250 254 257 261 264 265 265 267 266 266 263 260 257 255 255 255 247 241 241 240 235 233 236 239 241 244 247 251 254 254 253 250 248 248 249 248 247 246 248 249 248 247 248
256 252 250 249 247 244 243 243 245 246 246 246 247 247 248 249 248 246 245 244 246 248 250 252 256 259 262 264 265 267 269 270 272 272 273 276 271 257 253 253 247 241 239 240 241 242 244 248 251 254 256 255 253 250 248 248 248 247 246 245 244 243 244
262 261 260 259 257 256 253 250 250 250 250 250 250 249 248 249 249 249 248 246 245 245 247 248 248 250 254 257 260 262 266 268 272 275 277 279 281 278 272 267 260 252 247 245 245 245 245 246 249 252 254 256 256 254 250 247 247 249 249 247 243 242 242
263 264 264 263 262 262 260 259 258 256 256 256 256 254 252 250 250 250 250 250 248 247 248 248 247 246 247 250 253 255 259 262 265 269 272 275 278 279 276 271 267 264 257 250 248 249 249 249 250 251 251 251 254 255 253 248 246 247 248 248 247 245 244
262 265 267 268 268 267 266 266 266 264 263 263 262 261 259 256 254 252 250 251 251 251 251 250 249 247 246 245 247 250 252 256 258 260 264 267 271 274 274 271 269 268 266 259 253 251 250 250 250 250 248 247 249 250 249 245 243 243 243 245 248 248 246
259 262 265 268 271 272 272 271 270 269 268 267 266 266 265 264 262 260 256 254 253 253 252 252 252 252 251 248 247 247 248 251 253 254 256 260 263 266 268 268 268 266 264 263 260 255 251 249 248 247 247 246 248 249 250 251 252 253 250 250 252 251 249
256 257 260 263 267 271 273 273 272 271 270 268 268 267 267 266 266 266 264 261 258 256 255 254 254 254 255 254 253 251 249 249 249 250 251 253 255 257 259 262 263 262 259 257 257 255 252 249 246 245 245 245 247 251 255 260 266 267 258 254 255 255 253
259 258 259 261 262 265 268 270 272 273 272 270 269 268 268 268 267 267 266 265 263 262 260 258 257 256 256 256 256 256 254 252 251 250 249 249 250 251 253 256 258 258 256 252 252 252 252 251 249 246 245 245 246 248 252 258 265 269 264 258 257 257 256
268 267 266 265 265 266 267 269 271 273 273 273 272 270 270 270 269 268 268 266 265 264 263 261 261 259 258 258 258 258 258 257 255 252 250 248 247 247 248 251 254 256 255 252 250 252 253 253 253 250 249 248 246 247 249 252 258 264 267 266 262 260 259
276 274 272 271 270 270 269 271 272 272 274 275 275 274 273 272 271 271 270 269 268 266 264 263 262 261 261 260 259 258 258 258 258 256 254 251 248 246 246 247 248 251 254 253 250 250 251 252 253 253 253 252 250 248 248 249 251 255 257 259 262 262 262
284 282 280 278 276 275 274 273 272 272 273 274 275 275 275 274 274 272 271 271 270 269 267 265 264 262 261 261 260 259 258 257 258 258 257 255 252 248 245 244 245 246 249 251 251 249 248 250 251 252 254 256 256 252 250 249 250 251 251 252 256 260 261
288 288 286 285 283 280 279 277 275 274 273 273 273 274 274 274 274 273 273 272 271 271 270 268 266 264 262 260 260 260 259 258 257 257 257 257 256 252 247 244 243 243 243 245 248 249 247 247 249 251 252 255 257 256 253 251 250 250 249 250 252 255 257